Flight Information

DEPARTURE
CHINO, CA
Elevation:
650
Runways:
8L/26R - 4858x150 - ASPH-G
3/21 - 4919x150 - ASPH-G
8R/26L - 7000x150 - ASPH-G
Active PE Departure:
26L - 26R
Current PE ATIS:
Y
Altimeter:
30.04
Remarks:
ATIS:
125.85 909-393-5365
Ground:
121.6
Tower:
118.5
DESTINATION
,
Elevation:
TPA:
1000 (est.)


6757.1 NM74° True-14° Var60° HDG

Flight Plan:
(click to file on line)

1. Type
2. Aircraft Identification
3. Aircraft Type / Special Equipment
4. True Airspeed
kts
5. Departure Airport
(ICAO code)
6. Arriving Airport
(ICAO code)
7. Cruising Altitude
ft
8. Alternate Airport
(ICAO code)
9. Route of Flight
10. Remarks


00:00:00 Departure ATIS: Destination ATIS:

Clearance Limit:
Route:
Altitude: Expect in minutes
Frequency:
Transponder: (7500 Hijack / 7600 Lost Comms / 7700 Emergency)


KCNO 221604Z 03005KT 10SM SCT030 BKN120 BKN200 11/07 A3003 RMK AO2 T01060067
Time: 2021-01-22T16:04:00Z
1611332082
Winds: 30 @ 5 kts
Visibility: 10.0 sm
Clouds (AGL): SCT 3000
BKN 12000
BKN 20000
Temperature: 10.6 C
Dew Point: 6.7 C
Pressure: 30.029528 in Hgbr


Notes:

Data extracted from FAA Digital Chart Supplement. Effective: 0901Z Thursday, Dec 31, 2020 to 0901Z Thursday, Jan 28, 2021
Current ATIS data is provided courtisy of PilotEdge.